STARLINK-30547, 58044

Orbit data source: Space-Track

STARLINK-30547, 58044 is a payload satellite owned by SpaceX/Seattle (US) in LEO that was launched on Mon, 09 Oct 2023 UTC via an FALCON 9 launch vehicle from the Air Force Western Test Range (AFWTR). Payload-class satellites include a variety of spacecraft equipped with specific instruments for various scientific and technological missions. These include communications satellites like Starlink; space stations such as the ISS; scientific satellites like the Hubble; Earth observation satellites from companies like Planet Labs, Umbra, and HawkEye 360; GPS; miniature CubeSats for education and research; and military/defense satellites.

Loading next visibility...
Identifier
58044, 2023-156S
Orbit
LEO
Country
Flag of USUS
Related business
Manufacturer
SpaceX/Seattle
Mission
Operational Commercial Communications
Bus & Motor
STARLINK V2M, Unknown motor
Mass
730 kg wet, ~700 kg dry
Launch date (UTC)
2023-10-09 (2 years ago)
Launch vehicle
FALCON 9
Launch site
Air Force Western Test Range (AFWTR)
Object type
Payload
Rocket body
Debris
Shape & HBR
Box + 2 Pan, 17.7 m
Radar Cross Section
33.884 m², Large (>1 m²)

Expand to show TLE details & history
Last TLE update: 17 hours ago

TLE from 17 hours ago
0 STARLINK-30547
1 58044U 23156S   25348.92299444  .00005921  00000-0  21176-3 0  9990
2 58044  53.1591 201.9457 0001277  75.4838 284.6304 15.30217023122058
Epoch: 2025-12-14T22:09Z
TLE epoch observation values (Epoch: 2025-12-14T22:09:06.719Z)
Latitude
-0.00006°
Longitude
145.83871°
Altitude
475.843 km
Speed
7.629 km/s
True Right ascension
13h 27m 46s
True Declination
0° 00' 00"
Sunlit
Object was in daylight at epoch
Visualization orbit readout
Latitude
Unknown
Longitude
Unknown
Altitude
Unknown
Speed
Unknown
Apparent Right ascension
Unknown
Apparent Declination
Unknown
Sunlit
N/A
Visualization observer readout
Local Sidereal Time
13:19:03
Azimuth
Unknown
Elevation
Unknown
Doppler factor
Unknown
Orbital elements
Apogee altitude
476.296 km
Perigee altitude
474.546 km
Semi-major axis
6,853.558 km
Eccentricity
0.00013
Inclination
53.1591°
RAAN
201.9457°
Arg. of periapsis
75.4838°
True anomaly
284.61624°
Mean anomaly
284.6304°
Eccentric anomaly
284.62332°
Mean motion
3.82533 °/min
Orbital period
94.11 mins
BSTAR
0.00021176
Loading maneuver chart data...
Computing Atmospheric mass density...
Loading historical data...
Loading historical data...
Loading historical data...
Loading historical data...
Loading historical data...
Loading historical data...
Loading historical data...

Documentation

Showing up to 5 results
|